STARLINK-34715, 64931

Orbit data source: Space-Track

STARLINK-34715, 64931 is a payload satellite owned by SpaceX/Seattle (US) in LEO that was launched on Sat, 26 Jul 2025 UTC via an FALCON 9 launch vehicle from the Air Force Eastern Test Range (AFETR). Payload-class satellites include a variety of spacecraft equipped with specific instruments for various scientific and technological missions. These include communications satellites like Starlink; space stations such as the ISS; scientific satellites like the Hubble; Earth observation satellites from companies like Planet Labs, Umbra, and HawkEye 360; GPS; miniature CubeSats for education and research; and military/defense satellites.

Loading next visibility...
Identifier
64931, 2025-157AD
Orbit
LEO
Country
Flag of USUS
Related business
Manufacturer
SpaceX/Seattle
Mission
Operational Commercial Communications
Bus & Motor
STARLINK V2MO, Unknown motor
Mass
575 kg wet, ~530 kg dry
Launch date (UTC)
2025-07-26 (10 months ago)
Launch vehicle
FALCON 9
Launch site
Air Force Eastern Test Range (AFETR)
Object type
Payload
Rocket body
Debris
Shape & HBR
Box + 2 Pan, 17.7 m
Radar Cross Section
36.964 m², Large (>1 m²)

Expand to show TLE details & history
Last TLE update: 14 hours ago

TLE from 14 hours ago
0 STARLINK-34715
1 64931U 25157AD  26145.30310843  .00024981  00000-0  85263-3 0  9994
2 64931  53.1612 349.7981 0001271  92.2134 267.9012 15.30204118 47852
Epoch: 2026-05-25T07:16Z
TLE epoch observation values (Epoch: 2026-05-25T07:16:28.568Z)
Latitude
-0.00004°
Longitude
-2.2138°
Altitude
476.135 km
Speed
7.629 km/s
True Right ascension
23h 19m 11s
True Declination
0° 00' 00"
Sunlit
Object was in daylight at epoch
Visualization orbit readout
Latitude
Unknown
Longitude
Unknown
Altitude
Unknown
Speed
Unknown
Apparent Right ascension
Unknown
Apparent Declination
Unknown
Sunlit
N/A
Visualization observer readout
Local Sidereal Time
06:59:03
Azimuth
Unknown
Elevation
Unknown
Doppler factor
Unknown
Orbital elements
Apogee altitude
476.33 km
Perigee altitude
474.588 km
Semi-major axis
6,853.596 km
Eccentricity
0.00013
Inclination
53.1612°
RAAN
349.7981°
Arg. of periapsis
92.2134°
True anomaly
267.88665°
Mean anomaly
267.9012°
Eccentric anomaly
267.89392°
Mean motion
3.8253 °/min
Orbital period
94.11 mins
BSTAR
0.00085263
Loading maneuver chart data...
Computing Atmospheric mass density...
Loading historical data...
Loading historical data...
Loading historical data...
Loading historical data...
Loading historical data...
Loading historical data...
Loading historical data...

Documentation

Showing up to 5 results
|